Starlink 11439

operational
NORAD ID: 62419 Int'l Des: 2024-249 Owner: SPXS Country: US Constellation: starlink
LEOCIRCULAR

关于 Starlink 11439

正在加载描述...

实时位置

正在加载3D地球...

即将过境

高度历史

Altitude vs Time

uPlot chart will show altitude changes over time

两行轨道根数

1 62419U 24249L 26035.96021149 .01614034 00000-0 45230-2 0 9996
2 62419 42.9992 3.9924 0001962 218.0696 142.0040 15.90122573 64349
Epoch: Feb 4, 2026 • Age: 5 hours

当前状态

高度 299.0 km
速度 7.73 km/s
星下点 0.72°N, 18.2°W
发射日期 Dec 23, 2024
运行时间 1.1 years
类型 internet

技术详情

分类 Payload
质量 960.00 kg
干质量 910.00 kg
总质量 960.00 kg
长度 0.30 m
直径 4.10 m
跨度 29.00 m
形状 Box + pan
制造商 SPXS
平台类型 Starlink V2MD
阶段状态 In Orbit
所有者/国家 SPXS/US

大型星座

Loading constellations...